Simultaneous Nadir Overpasses (SNOs) Predictions

Prediction of SNOs between GOES-15 and NOAA-20 Satellite Orbit:

Table of predicted SNOs for the next 14.0 days since TLE Epoch: 6/24/2023
Index Date Time (GOES-15) GOES-15 Lat,Lon NOAA-20 Lat,Lon Distance(km) Time Diff (sec)
1 06/25/2023 00:25:38 0.14,-165.03 0.22,-164.63 44.99 80
2 06/26/2023 12:44:50 -0.17,-165.61 0.78,-169.95 493.81 80
3 06/27/2023 12:28:46 -0.15,-165.99 -0.27,-165.43 63.77 80
4 06/29/2023 00:48:07 0.19,-166.57 -0.74,-170.78 479.80 80
5 06/30/2023 00:32:03 0.17,-166.94 0.31,-166.26 77.23 80
6 07/01/2023 12:51:14 -0.21,-167.51 0.69,-171.58 463.41 80
7 07/02/2023 12:35:11 -0.20,-167.87 -0.36,-167.06 92.78 80
8 07/04/2023 00:54:31 0.23,-168.43 -0.64,-172.41 452.94 80
9 07/05/2023 00:38:28 0.21,-168.79 0.42,-167.89 102.97 80
10 07/06/2023 12:57:38 -0.25,-169.35 0.63,-173.19 438.78 80
11 07/07/2023 12:41:36 -0.23,-169.71 -0.49,-168.69 116.97 80
